Location: Stoke Bliss
(52.2667°N, 2.5167°W)
Time: 20:54:02
(UTC+00:00)

Cosmos 1500 - Pass Details

Date: 03 March 2021
Orbit: 499 x 517 km, 82.5° (Epoch: 15 April)

Event Time Altitude Azimuth Distance (km) Brightness Sun altitude
Rises 18:48:41 0° 168° (SSE) 2,582 6.6 -9.2°
Reaches altitude 10° 18:50:53 10° 159° (SSE) 1,703 5.6 -9.6°
Maximum altitude 18:54:19 36° 93° (E) 815 3.7 -10.1°
Drops below altitude 10° 18:57:46 10° 26° (NNE) 1,718 5.6 -10.6°
Sets 19:00:00 0° 18° (NNE) 2,609 6.6 -11.0°
